Regional Weather Roundup
Issued by NWS

Home | Current Version | Previous Version | Text Only | Print | Product List | Glossary On
Versions: 1 2 3 4 5 6 7 8 9 10 11 12 13 14 15 16 17 18 19 20 21 22 23 24 25 26 27
000
ASUS42 KFFC 280103
RWRGA
WEATHER ROUNDUP FOR GEORGIA
NATIONAL WEATHER SERVICE PEACHTREE CITY GA
900 PM EDT WED JUL 27 2016

NOTE: "FAIR" INDICATES FEW OR NO CLOUDS BELOW 12,000 FEET WITH NO
SIGNIFICANT WEATHER AND/OR OBSTRUCTIONS TO VISIBILITY.

* = USE WITH CAUTION. THE STATIONS MARKED WITH AN ASTERISK MAY NOT
REPORT WEATHER SUCH AS PRECIPITATION, FOG, OR THUNDER AND ARE NOT
QUALITY CONTROLLED BY NWS.

THE REMARK "TC" DENOTES TEMPERATURE READING IN DEGREES CELSIUS.

GAZ001>058-280200-
NORTH GEORGIA

CITY           SKY/WX    TMP DP  RH WIND       PRES   REMARKS
ATLANTA        PTCLDY    86  69  56 SW12      30.02S HX  90
ATHENS         CLEAR     86  70  58 CALM      29.99S HX  90
CHAMBLEE       CLEAR     85  67  54 SW12      30.01S
PEACHTREE CITY CLEAR     84  70  62 W7        30.03S
ROME           PTCLDY    86  69  56 S7        29.97S HX  90
WEST ATLANTA   CLOUDY    87  67  51 SW10      30.01R HX  90
GAINESVILLE    CLEAR     84  68  58 SW6       30.02F
CARTERSVILLE   MOCLDY    84  69  60 VRB5      30.00S


CITY           SKY/WX    TMP DP  RH WIND       PRES   REMARKS
DALTON*        CLEAR     86  68  54 S5        29.96F
LAWRENCEVILLE* CLEAR     84  70  61 SW14      30.00S
MARIETTA       MOCLDY    85  69  59 SW6       30.02S
KENNESAW*      PTCLDY    84  68  58 W7        29.97R
CANTON*        CLEAR     84  63  48 SW5       30.03S
BLAIRSVILLE*     N/A    N/A N/A N/A MISG      30.04F
$$

GAZ059>098-102>109-280200-
CENTRAL GEORGIA

CITY           SKY/WX    TMP DP  RH WIND       PRES   REMARKS
AUGUSTA-BUSH   CLEAR     89  68  49 W5        29.95S HX  93
AUGUSTA-DANIEL CLEAR     91  68  46 VRB3      29.98R HX  95
COLUMBUS       PTCLDY    86  69  56 W5        30.01S HX  90
MACON          CLEAR     87  69  54 CALM      30.00S HX  91
ROBINS AFB     CLEAR     89  70  52 SW6       29.99S HX  94


CITY           SKY/WX    TMP DP  RH WIND       PRES   REMARKS
LAGRANGE*      MOCLDY    81  77  88 CALM      30.03S
MILLEDGEVILLE* CLEAR     86  73  66 CALM      29.99S HX  93
$$

GAZ099>101-110>166-280200-
SOUTH GEORGIA

CITY           SKY/WX    TMP DP  RH WIND       PRES   REMARKS
SAVANNAH       NOT AVBL
VALDOSTA       CLEAR     82  75  79 CALM      30.03R
ALMA           CLEAR     87  69  54 W5        30.01R HX  91
ST SIMONS      CLEAR     86  75  69 S8        30.00R HX  95
ALBANY         CLEAR     87  71  58 W5        30.03S HAZE    HX  93
HUNTER AFB     CLEAR     86  80  82 S7        29.96R HX 101
MOODY AFB      PTCLDY    87  71  59 SW7       30.03R HX  92
BRUNSWICK      CLEAR     88  79  74 S9        30.01R HX 102


CITY           SKY/WX    TMP DP  RH WIND       PRES   REMARKS
BAINBRIDGE*    CLEAR     86  70  58 W6        30.03R HX  90
MOULTRIE*      CLEAR     86  73  66 CALM      30.04R HX  93
VIDALIA*       CLEAR     90  68  48 CALM      30.00R HX  93
WAYCROSS*      CLEAR     90  74  58 W5        30.01R HX  99
DOUGLAS*       CLEAR     86  68  54 W3        30.03R
$$




USA.gov is the U.S. government's official web portal to all federal, state and local government web resources and services.